Regional Weather Roundup
Issued by NWS Little Rock, AR

Home | Current Version | Previous Version | Text Only | Print | Product List | Glossary On
Versions: 1 2 3 4 5 6 7 8 9 10 11 12 13 14 15 16 17 18 19 20 21 22 23 24 25 26 27 28 29 30 31 32 33 34 35 36 37 38 39 40 41 42 43 44 45 46 47 48 49 50
000
ASUS44 KLZK 171705
RWRLZK

WEATHER ROUNDUP FOR ARKANSAS
NATIONAL WEATHER SERVICE LITTLE ROCK AR
1100 AM CST TUE JAN 17 2017

NOTE: "FAIR" INDICATES FEW OR NO CLOUDS BELOW 12,000 FEET WITH NO
SIGNIFICANT WEATHER AND/OR OBSTRUCTIONS TO VISIBILITY.

ARZ001-003-010-029-171800-
NORTHWEST ARKANSAS

CITY           SKY/WX    TMP DP  RH WIND       PRES   REMARKS
FAYETTEVILLE   CLOUDY    38  36  92 NW6       30.16R
FORT SMITH     CLOUDY    44  35  70 W10       30.20R
HARRISON       CLOUDY    41  37  86 W9        30.13R
BENTONVILLE    CLOUDY   N/A N/A N/A W7        30.16R
ROGERS         CLOUDY    38  35  89 W7        30.16R
SILOAM SPGS    CLOUDY    37  34  87 NW7       30.17R
HIGHFILL       CLOUDY    39  34  82 W9        30.15R
SPRINGDALE     CLOUDY    39  36  87 NW9       30.17R
$$

ARZ004-005-016-171800-
NORTH CENTRAL ARKANSAS

CITY           SKY/WX    TMP DP  RH WIND       PRES   REMARKS
BATESVILLE     CLOUDY    46  39  76 NW8       30.15R
FLIPPIN        CLOUDY    43  34  70 NW8       30.11S
MTN HOME       CLOUDY    42  36  79 NW9       30.12R
$$

ARZ040-041-171800-
WEST CENTRAL ARKANSAS

CITY           SKY/WX    TMP DP  RH WIND       PRES   REMARKS
MENA           MOSUNNY   48  41  76 CALM      30.15F
MOUNT IDA      MOSUNNY   49  36  61 VRB3      30.12F
$$

ARZ009-017-025-026-028-171800-
NORTHEAST ARKANSAS

CITY           SKY/WX    TMP DP  RH WIND       PRES   REMARKS
CORNING        CLOUDY    46  41  81 W13       30.12S
JONESBORO      CLOUDY    48  40  73 NW10      30.12S
NEWPORT        MOSUNNY   51  44  77 NW9         N/A
WALNUT RIDGE   PTSUNNY   48  37  66 W14       30.12S
BLYTHEVILLE    MOSUNNY   54  44  69 W9        30.11S
$$

ARZ022-023-033-042-044-171800-
CENTRAL ARKANSAS

CITY           SKY/WX    TMP DP  RH WIND       PRES   REMARKS
LITTLE ROCK    CLOUDY    49  41  74 NW10      30.16R
SEARCY         SUNNY     51  41  68 W9        30.16R
HOT SPRINGS    CLOUDY    50  40  68 NW7       30.15S
RUSSELLVILLE   PTSUNNY   47  38  71 NW14      30.16R
CLINTON        CLOUDY    46  39  76 SW7       30.16R
$$

ARZ036-171800-
EAST ARKANSAS

CITY           SKY/WX    TMP DP  RH WIND       PRES   REMARKS
WEST MEMPHIS   LGT RAIN  51  44  77 SW7       30.12S
$$

ARZ050-053-066-070-073-171800-
SOUTHWEST ARKANSAS

CITY           SKY/WX    TMP DP  RH WIND       PRES   REMARKS
ARKADELPHIA    FAIR      52  45  77 NW3       30.17F
CAMDEN         CLOUDY    55  45  67 NW3       30.16F
TEXARKANA      PTSUNNY   51  44  77 NW5       30.18R
EL DORADO      CLOUDY    52  48  86 CALM      30.17S
DE QUEEN       PTSUNNY   51  41  68 VRB5      30.17S
$$

ARZ056-057-069-171800-
SOUTHEAST ARKANSAS

CITY           SKY/WX    TMP DP  RH WIND       PRES   REMARKS
PINE BLUFF     CLOUDY    54  48  80 CALM      30.15S
STUTTGART      CLOUDY    50  39  66 W8        30.17R
MONTICELLO     PTSUNNY   58  48  69 W6        30.16R

$$





USA.gov is the U.S. government's official web portal to all federal, state and local government web resources and services.